Location: Unspecified
(51.0000°N, 12.0000°E)
Time: 00:58:47
(UTC+02:00)

OTV 5 (USA 277) - Pass Details

Date: 27 April 2019
Orbit: 310 x 325 km, 54.5° (Epoch: 08 May)

Event Time Altitude Azimuth Distance (km) Brightness Sun altitude
Rises 22:20:13 0° 264° (W) 2,035 ? -15.3°
Reaches altitude 10° 22:22:13 10° 271° (W) 1,207 ? -15.5°
Maximum altitude 22:24:48 45° 347° (NNW) 436 ? -15.8°
Enters shadow 22:26:48 15° 58° (ENE) 968 ? -16.0°
